Location: Toronto
(43.6672°N, 79.4170°W)
Time: 02:41:55
(UTC-05:00)

ISS - All Passes

Search period start: 28 February 2017 00:00
Search period end: 10 March 2017 00:00
Orbit: 399 x 408 km, 51.6° (Epoch: 28 February)

Date Brightness Start Highest point End Pass type
(mag) Time Alt. Az. Time Alt. Az. Time Alt. Az.
28 Feb - 06:57:31 10° SSW 07:00:37 41° SE 07:03:45 10° ENE daylight
28 Feb - 08:34:03 10° W 08:37:07 35° NNW 08:40:12 10° NE daylight
28 Feb - 10:11:43 10° NW 10:14:15 20° N 10:16:47 10° NE daylight
28 Feb - 11:48:26 10° NW 11:51:25 30° NNE 11:54:24 10° E daylight
28 Feb - 13:24:48 10° WNW 13:28:02 54° SW 13:31:14 10° SE daylight
01 Mar - 06:05:34 10° S 06:08:12 22° SE 06:10:51 10° E visible
01 Mar - 07:41:14 10° WSW 07:44:27 53° NNW 07:47:43 10° NE daylight
01 Mar - 09:18:50 10° WNW 09:21:27 21° N 09:24:04 10° NE daylight
01 Mar - 10:55:54 10° NW 10:58:40 24° NNE 11:01:26 10° ENE daylight
01 Mar - 12:32:11 10° WNW 12:35:29 83° NNE 12:38:47 10° ESE daylight
01 Mar - 14:09:51 10° W 14:11:31 13° SW 14:13:10 10° SSW daylight
02 Mar - 05:14:25 10° SSE 05:15:51 12° SE 05:17:18 10° ESE visible
02 Mar - 06:48:33 10° WSW 06:51:51 89° NW 06:55:10 10° ENE daylight
02 Mar - 08:25:51 10° WNW 08:28:39 25° NNW 08:31:27 10° NE daylight
02 Mar - 10:03:16 10° NW 10:05:52 21° N 10:08:28 10° ENE daylight
02 Mar - 11:39:38 10° NW 11:42:52 50° NNE 11:46:05 10° ESE daylight
02 Mar - 13:16:26 10° W 13:19:09 24° SW 13:21:52 10° SSE daylight
03 Mar - 05:56:06 10° SW 05:59:18 50° SE 06:02:30 10° ENE visible
03 Mar - 07:32:52 10° W 07:35:53 31° NNW 07:38:53 10° NE daylight
03 Mar - 09:10:30 10° NW 09:13:02 20° N 09:15:33 10° NE daylight
03 Mar - 10:47:07 10° NW 10:50:10 33° NNE 10:53:12 10° E daylight
03 Mar - 12:23:32 10° WNW 12:26:42 44° SW 12:29:50 10° SE daylight
04 Mar - 05:03:59 10° SSW 05:06:49 27° SE 05:09:39 10° ENE visible
04 Mar - 06:39:58 10° W 06:43:09 45° NNW 06:46:21 10° NE daylight
04 Mar - 08:17:36 10° WNW 08:20:11 21° N 08:22:46 10° NE daylight
04 Mar - 09:54:33 10° NW 09:57:24 26° NNE 10:00:13 10° ENE daylight
04 Mar - 11:30:50 10° WNW 11:34:09 82° SSW 11:37:26 10° SE daylight
04 Mar - 13:09:13 10° WSW 13:10:06 11° SW 13:10:58 10° SW daylight
05 Mar - 04:12:27 10° S 04:14:24 15° SE 04:16:22 10° E visible
05 Mar - 05:47:11 10° WSW 05:50:29 75° NNW 05:53:47 10° NE visible
05 Mar - 07:24:36 10° WNW 07:27:20 23° NNW 07:30:04 10° NE daylight
05 Mar - 09:01:55 10° NW 09:04:34 22° N 09:07:13 10° ENE daylight
05 Mar - 10:38:14 10° NW 10:41:31 58° NNE 10:44:46 10° ESE daylight
05 Mar - 12:15:13 10° W 12:17:43 20° SW 12:20:11 10° S daylight
06 Mar - 04:54:38 10° SW 04:57:52 61° SE 05:01:07 10° ENE visible
06 Mar - 06:31:35 10° W 06:34:31 29° NNW 06:37:28 10° NE daylight
06 Mar - 08:09:09 10° NW 08:11:42 20° N 08:14:14 10° NE daylight
06 Mar - 09:45:40 10° NW 09:48:47 37° NNE 09:51:53 10° E daylight
06 Mar - 11:22:10 10° WNW 11:25:14 36° SW 11:28:17 10° SSE daylight
07 Mar - 04:02:21 10° SSW 04:05:19 32° SE 04:08:19 10° ENE visible
07 Mar - 05:38:36 10° W 05:41:44 40° NNW 05:44:53 10° NE visible
07 Mar - 07:16:15 10° NW 07:18:48 20° N 07:21:21 10° NE daylight
07 Mar - 08:53:05 10° NW 08:55:59 27° NNE 08:58:53 10° ENE daylight
07 Mar - 10:29:24 10° WNW 10:32:41 68° SW 10:35:57 10° SE daylight
08 Mar - 03:10:32 10° S 03:12:51 18° SE 03:15:10 10° E visible
08 Mar - 04:45:44 10° WSW 04:49:00 64° NNW 04:52:17 10° NE visible
08 Mar - 06:23:15 10° WNW 06:25:55 22° N 06:28:35 10° NE daylight
08 Mar - 08:00:26 10° NW 08:03:09 23° N 08:05:49 10° ENE daylight
08 Mar - 09:36:44 10° NW 09:40:02 68° NNE 09:43:18 10° ESE daylight
08 Mar - 11:13:58 10° W 11:16:09 17° SW 11:18:20 10° S daylight
09 Mar - 03:53:04 10° SW 03:56:20 74° SE 03:59:37 10° ENE visible
09 Mar - 05:30:10 10° WNW 05:33:02 27° NNW 05:35:55 10° NE visible
09 Mar - 07:07:41 10° NW 07:10:14 20° N 07:12:47 10° NE daylight
09 Mar - 08:44:07 10° NW 08:47:17 42° NNE 08:50:27 10° E daylight
09 Mar - 10:20:44 10° WNW 10:23:40 30° SW 10:26:35 10° SSE daylight
